COSMOS 1275 DEB, 19027

Orbit data source: Space-Track

COSMOS 1275 DEB, 19027 is space debris in LEO originally from a launch on Thu, 04 Jun 1981 UTC launched from the Plesetsk Missile And Space Complex (PKMTR). Debris objects in space refer to the collection of defunct objects orbiting the Earth. Examples of debris include non-operational satellites, rocket bodies, and fragments generated from explosions, collisions, or faulty payload assembly.

Loading next visibility...
Identifier
19027, 1981-053ME
Orbit
LEO
Country
Flag of CISCIS
Related business
Manufacturer
Unknown
Mission
Spacecraft
Bus & Motor
Unknown
Mass
Unknown
Launch date (UTC)
1981-06-04 (45 years ago)
Launch vehicle
Unknown
Launch site
Plesetsk Missile And Space Complex (PKMTR)
Object type
Payload
Rocket body
Debris
Shape & HBR
Unknown shape, 0.1 m
Radar Cross Section
Small (<0.1 m²)

Expand to show TLE details & history
Last TLE update: 2 days ago

TLE from 2 days ago
0 COSMOS 1275 DEB
1 19027U 81053ME  25354.03234130  .00003472  00000-0  16771-2 0  9991
2 19027  83.0042   9.3095 0059277 329.7329  58.9085 14.17441974 56445
Epoch: 2025-12-20T00:46Z
TLE epoch observation values (Epoch: 2025-12-20T00:46:34.288Z)
Latitude
29.03402°
Longitude
-87.31338°
Altitude
815.765 km
Speed
7.459 km/s
True Right ascension
00h 52m 46s
True Declination
28° 53' 22"
Sunlit
Object was in daylight at epoch
Visualization orbit readout
Latitude
Unknown
Longitude
Unknown
Altitude
Unknown
Speed
Unknown
Apparent Right ascension
Unknown
Apparent Declination
Unknown
Sunlit
N/A
Visualization observer readout
Local Sidereal Time
16:19:01
Azimuth
Unknown
Elevation
Unknown
Doppler factor
Unknown
Orbital elements
Apogee altitude
873.839 km
Perigee altitude
788.37 km
Semi-major axis
7,209.242 km
Eccentricity
0.00593
Inclination
83.0042°
RAAN
9.3095°
Arg. of periapsis
329.7329°
True anomaly
59.49241°
Mean anomaly
58.9085°
Eccentric anomaly
59.20023°
Mean motion
3.54576 °/min
Orbital period
101.53 mins
BSTAR
0.0016771
Loading maneuver chart data...
Computing Atmospheric mass density...
Loading historical data...
Loading historical data...
Loading historical data...
Loading historical data...
Loading historical data...
Loading historical data...
Loading historical data...

Documentation

Showing up to 5 results
|